Regional Weather Roundup
Issued by NWS Goodland, KS

Home | Current Version | Previous Version | Graphics & Text | Print | Product List | Glossary On
Versions: 1 2 3 4 5 6 7 8 9 10 11 12 13 14 15 16 17 18 19 20 21 22 23 24 25 26 27 28 29 30 31 32 33 34 35 36 37 38 39 40 41 42 43 44 45 46 47 48 49 50
000
ASUS43 KGLD 310308
RWRGLD

GOODLAND FORECAST AREA HOURLY WEATHER ROUNDUP
NATIONAL WEATHER SERVICE GOODLAND KS
900 PM MDT MON MAY 30 2016

...OFFICIAL OBSERVATIONS...

CITY           SKY/WX    TMP DP  RH WIND       PRES   REMARKS
GOODLAND KS    CLOUDY    58  54  86 SE13      29.97F
HILL CITY KS   CLOUDY    67  53  61 NW39G62   29.96R SQUALL
IMPERIAL NEB   CLOUDY    61  53  75 SW8       29.92R
MCCOOK NEB     CLOUDY    59  55  87 NE7G18    29.91F
AKRON CO       CLEAR     54  45  71 W8        29.97S
BURLINGTON CO  CLOUDY    60  47  61 SE8       30.02R
LIMON CO       CLOUDY    51  45  79 CALM      30.03F
$$

...UNOFFICIAL OBSERVATIONS...

CITY           SKY/WX    TMP DP  RH WIND       PRES   REMARKS
GOVE KS          N/A    N/A N/A N/A MISG        N/A
LENORA KS        N/A     58  32  37 MISG        N/A
SHARON SPRINGS   N/A     60  53  78 NE12G18     N/A
TRIBUNE KS     CLOUDY    72  45  37 CALM      29.94R
KIT CARSON CO    N/A     57  48  72 MISG        N/A
YUMA CO          N/A     60  45  57 NW5         N/A
$$



USA.gov is the U.S. government's official web portal to all federal, state and local government web resources and services.